[[{"header":{"parameterUnit":"m.s-1","parameterCategory":1,"la1":30.2991,"la2":30.254,"lo1":-89.0895,"lo2":-89.0444,"dy":0.0017,"dx":0.0017,"nx":28,"ny":28,"refTime":"2025-06-07T21:00:00:Z","depth":0,"parameterNumber":2,"parameterNumberName":"U-component_of_WINDS"},"data":[0,0,0,0,0,0,0,0,0,0,0,0,0,0,0,0,0,0,0,0,0,0,0,0,0,0,0,0,0,0,0,0,0,0,0,0,0,0,0,0,0,0,0,0,0,0,0,0,0,0,0,0,0,0,0,0,0,0,2.3022,2.3023,0,2.3095,2.3095,2.3096,2.3108,2.3108,2.3107,2.3107,2.3186,2.3189,2.3191,0,0,0,0,0,0,0,0,0,0,0,0,0,2.2901,2.2903,2.3022,2.3023,2.3024,2.3094,2.3095,2.3096,2.3109,2.3108,2.3107,2.3106,2.3185,2.3188,2.3191,0,0,0,0,0,0,0,0,0,0,0,0,0,2.2961,2.2904,2.3022,2.3038,2.3041,2.3094,2.3095,2.3097,2.3109,2.3108,2.3107,2.3106,2.3184,2.3188,2.3192,2.3236,0,0,2.3204,2.3206,0,0,0,0,0,0,0,0,2.2958,2.2966,2.3035,2.3037,2.304,2.3091,2.3082,2.3144,2.3109,2.3083,2.3107,2.3105,2.3156,2.3162,2.3178,2.324,2.3243,2.3205,2.3207,2.3209,2.321,0,0,0,0,0,0,0,2.2954,2.2963,2.3051,2.3036,2.3039,2.3044,2.3052,2.3094,2.3124,2.3085,2.3086,2.3094,2.3157,2.3174,2.318,2.3244,2.3205,2.3208,2.3211,2.3212,2.3348,2.3349,0,0,0,0,0,0,2.2946,2.2959,2.3049,2.3053,2.2996,2.3047,2.3056,2.3076,2.3123,2.313,2.3095,2.3095,2.3167,2.3175,2.3183,2.3238,2.3209,2.3213,2.3215,2.3347,2.3349,2.335,0,0,0,0,0,0,2.2943,2.2954,2.3046,2.3007,2.3019,2.305,2.3073,2.3078,2.3095,2.3131,2.3137,2.3106,2.3167,2.3177,2.3223,2.3241,2.3214,2.3218,2.3346,2.3348,2.3349,2.3349,0,0,0,0,0,0,2.294,2.2953,2.2968,2.3007,2.3021,2.3083,2.3074,2.308,2.3101,2.3101,2.3143,2.3149,2.3167,2.3217,2.3227,2.3246,2.3221,2.3344,2.3347,2.3349,2.3347,2.335,2.3353,0,0,0,0,0,2.2935,2.2966,2.2969,2.2979,2.304,2.3083,2.3092,2.311,2.3102,2.3119,2.3143,2.3148,2.3238,2.3221,2.3233,2.3254,2.3343,2.3346,2.3349,2.3346,2.335,2.3353,0,0,0,0,0,0,2.2929,2.2971,2.2975,2.3018,2.3047,2.3085,2.3107,2.3113,2.3146,2.3145,2.3168,2.3177,2.3222,2.3243,2.3224,2.33,2.329,2.3295,2.3284,2.3288,2.3291,2.3285,2.3225,0,0,0,0,0,2.2933,2.2963,2.2998,2.3033,2.3048,2.3075,2.3094,2.3106,2.3138,2.315,2.3177,2.3209,2.3245,2.3268,2.3303,2.3351,2.3361,2.3371,2.3374,2.3376,2.338,2.3409,2.3414,2.3359,2.3359,2.3359,0,0,2.2941,2.2967,2.2985,2.3033,2.3057,2.3089,2.3085,2.3119,2.3144,2.3156,2.32,2.3222,2.326,2.3307,2.3329,2.3326,2.3398,2.338,2.3381,2.3384,2.3412,2.3418,2.3422,2.336,2.336,2.336,0,0,2.2972,2.2994,2.3026,2.3051,2.3086,2.3104,2.3112,2.315,2.3164,2.3209,2.3219,2.3251,2.3311,2.3338,2.3359,2.3403,2.3409,2.3414,2.3428,2.3456,2.346,2.3464,2.3481,2.3486,2.3418,2.3418,2.3418,0,2.2978,2.3025,2.3043,2.3077,2.3098,2.311,2.3144,2.3167,2.3213,2.3229,2.3224,2.33,2.3327,2.3381,2.3392,2.3409,2.342,2.3409,2.3458,2.3462,2.3466,2.3482,2.3488,2.3418,2.3418,2.3418,2.3418,0,2.3031,2.3064,2.3086,2.3128,2.3153,2.3187,2.3212,2.3235,2.3245,2.3265,2.3312,2.3344,2.3386,2.34,2.3411,2.3457,2.3453,2.3453,2.3444,2.3472,2.3487,2.3493,2.3419,2.3419,2.3419,2.3418,0,0,2.3058,2.3111,2.3119,2.3139,2.3181,2.3208,2.3244,2.3283,2.3303,2.3335,2.3367,2.3419,2.3419,2.3443,2.3458,2.3482,2.3516,2.3479,2.348,2.3485,2.357,2.357,2.3576,2.3521,2.3522,2.3523,2.3567,0,2.3094,2.3155,2.3174,2.3227,2.3258,2.3271,2.3303,2.3333,2.3353,2.3385,2.3408,2.3444,2.3441,2.3456,2.3481,2.3506,2.3533,2.3504,2.3552,2.3553,2.3541,2.3584,2.3584,2.3624,2.3573,2.3574,2.3575,0,2.3143,2.3175,2.3231,2.327,2.3284,2.3311,2.335,2.338,2.3415,2.3428,2.3456,2.3469,2.3509,2.3498,2.3555,2.3535,2.3556,2.3572,2.3574,2.3579,2.3565,2.3591,2.3637,2.3643,2.3585,2.3584,2.3583,0,2.3158,2.3216,2.3256,2.3273,2.3319,2.3339,2.3359,2.3394,2.3417,2.3452,2.3468,2.3508,2.3529,2.3561,2.3585,2.3575,2.3641,2.3631,2.3654,2.3653,2.3666,2.3665,2.3716,2.3681,2.368,2.368,2.368,0,2.3196,2.323,2.3264,2.3289,2.3328,2.335,2.3389,2.341,2.3441,2.3472,2.3487,2.3516,2.3546,2.3581,2.36,2.3645,2.3655,2.3668,2.3672,2.3666,2.3664,2.368,2.3678,2.3682,2.3682,2.3681,2.3681,0,2.3219,2.3242,2.3288,2.3328,2.3339,2.3366,2.3402,2.3428,2.3449,2.3489,2.35,2.3533,2.3575,2.3602,2.3655,2.3668,2.3717,2.3721,2.3704,2.3706,2.3727,2.3725,2.379,2.3801,2.3758,2.3758,2.3759,0,2.3241,2.3267,2.331,2.3331,2.3351,2.3386,2.3409,2.3434,2.3458,2.3502,2.3523,2.3565,2.3599,2.3665,2.3696,2.3737,2.3742,2.3763,2.3749,2.3742,2.3743,2.3741,2.3744,2.3764,2.3765,2.3765,2.3765,0,2.3278,2.3289,2.3321,2.3359,2.3387,2.3418,2.3449,2.3467,2.3497,2.3524,2.3565,2.3592,2.3646,2.3688,2.3733,2.3756,2.3767,2.377,2.3777,2.377,2.3759,2.3766,2.371,2.3768,2.3767,2.3767,2.3767,2.3767,2.3301,2.3325,2.3359,2.3396,2.3422,2.3452,2.3478,2.3503,2.3537,2.3582,2.3595,2.3639,2.3677,2.3737,2.3761,2.3797,2.3795,2.3806,2.3809,2.3811,2.3811,2.3754,2.3806,2.3806,2.3806,2.3806,2.3806,0,2.3339,2.3362,2.3395,2.3438,2.3468,2.3474,2.351,2.3535,2.3572,2.3606,2.3639,2.3688,2.3729,2.3764,2.3807,2.3829,2.3835,2.384,2.3838,2.3844,2.381,2.3799,2.3835,2.3835,2.3835,2.3834,2.3834,2.3834,2.3362,2.3403,2.3419,2.3475,2.3498,2.354,2.356,2.3588,2.3615,2.3668,2.3702,2.3723,2.3758,2.3804,2.3843,2.3853,2.3868,2.3871,2.3882,2.3849,2.3846,2.3843,2.3833,2.3875,2.3875,2.3913,2.3913,2.3913]},{"header":{"parameterUnit":"m.s-1","parameterCategory":1,"la1":30.2991,"la2":30.254,"lo1":-89.0895,"lo2":-89.0444,"dy":0.0017,"dx":0.0017,"nx":28,"ny":28,"refTime":"2025-06-07T21:00:00:Z","depth":0,"parameterNumber":3,"parameterNumberName":"V-component_of_WINDS"},"data":[0,0,0,0,0,0,0,0,0,0,0,0,0,0,0,0,0,0,0,0,0,0,0,0,0,0,0,0,0,0,0,0,0,0,0,0,0,0,0,0,0,0,0,0,0,0,0,0,0,0,0,0,0,0,0,0,0,0,2.8244,2.8244,0,2.826,2.8261,2.8261,2.8261,2.8261,2.8261,2.8261,2.8276,2.8276,2.8277,0,0,0,0,0,0,0,0,0,0,0,0,0,2.8209,2.8209,2.8244,2.8244,2.8244,2.826,2.8261,2.8261,2.8261,2.8261,2.8261,2.8261,2.8276,2.8276,2.8277,0,0,0,0,0,0,0,0,0,0,0,0,0,2.8224,2.821,2.8243,2.8246,2.8247,2.826,2.8261,2.8261,2.8262,2.8261,2.8261,2.8261,2.8275,2.8276,2.8277,2.8288,0,0,2.828,2.828,0,0,0,0,0,0,0,0,2.8224,2.8226,2.8246,2.8246,2.8247,2.8259,2.8254,2.827,2.8262,2.8256,2.8261,2.8261,2.827,2.8271,2.8275,2.8289,2.829,2.828,2.828,2.8281,2.8281,0,0,0,0,0,0,0,2.8222,2.8225,2.825,2.8246,2.8247,2.8246,2.8248,2.8257,2.8264,2.8256,2.8256,2.8259,2.827,2.8274,2.8276,2.829,2.828,2.8281,2.8281,2.8282,2.8312,2.8312,0,0,0,0,0,0,2.8221,2.8224,2.825,2.8251,2.8234,2.8247,2.8249,2.8255,2.8264,2.8265,2.8259,2.8259,2.8273,2.8275,2.8276,2.8289,2.8281,2.8282,2.8282,2.8311,2.8312,2.8312,0,0,0,0,0,0,2.822,2.8223,2.8249,2.8237,2.8241,2.8247,2.8255,2.8255,2.826,2.8266,2.8267,2.8262,2.8273,2.8275,2.8285,2.8289,2.8282,2.8283,2.8311,2.8311,2.8312,2.8314,0,0,0,0,0,0,2.8219,2.8223,2.8228,2.8238,2.8241,2.8259,2.8255,2.8256,2.8261,2.8261,2.8269,2.827,2.8273,2.8284,2.8286,2.829,2.8283,2.8311,2.8311,2.8312,2.8314,2.8315,2.8315,0,0,0,0,0,2.8218,2.8228,2.8229,2.8232,2.8248,2.8259,2.8261,2.8264,2.8262,2.8266,2.827,2.827,2.8288,2.8285,2.8287,2.8292,2.831,2.8311,2.8312,2.8313,2.8315,2.8315,0,0,0,0,0,0,2.8219,2.823,2.823,2.8244,2.825,2.8259,2.8265,2.8266,2.8273,2.8272,2.8275,2.8277,2.8287,2.829,2.8286,2.8302,2.8299,2.83,2.8299,2.8301,2.8301,2.83,2.8284,0,0,0,0,0,2.8221,2.823,2.8238,2.8249,2.8253,2.8258,2.8263,2.8265,2.8272,2.8274,2.8279,2.8285,2.8292,2.8297,2.8303,2.8314,2.8315,2.8319,2.8319,2.832,2.8321,2.8325,2.8326,2.8314,2.8314,2.8314,0,0,2.8225,2.8232,2.8237,2.825,2.8255,2.8263,2.8261,2.8269,2.8275,2.8276,2.8285,2.8289,2.8295,2.8306,2.831,2.8309,2.8324,2.8321,2.8321,2.8322,2.8326,2.8327,2.8328,2.8314,2.8314,2.8314,0,0,2.8236,2.8243,2.8252,2.8257,2.8265,2.8269,2.8271,2.8279,2.8281,2.8291,2.8292,2.8298,2.831,2.8314,2.8318,2.8329,2.8328,2.8331,2.8335,2.8339,2.834,2.8341,2.8344,2.8345,2.8332,2.8332,2.8332,0,2.824,2.8252,2.8256,2.8265,2.827,2.8271,2.8279,2.8284,2.8294,2.8296,2.8295,2.8309,2.8314,2.8324,2.8327,2.833,2.8332,2.833,2.834,2.8341,2.8342,2.8344,2.8345,2.8332,2.8332,2.8332,2.8332,0,2.8255,2.8264,2.827,2.828,2.8285,2.8294,2.8298,2.8303,2.8304,2.8307,2.8316,2.8322,2.8329,2.8332,2.8333,2.8342,2.834,2.8339,2.8336,2.8343,2.8345,2.8346,2.8332,2.8332,2.8332,2.8332,0,0,2.8268,2.8279,2.8281,2.8285,2.8293,2.8299,2.8307,2.8315,2.8318,2.8324,2.833,2.834,2.8338,2.8343,2.8344,2.8348,2.8355,2.8346,2.8346,2.8347,2.8363,2.8364,2.8365,2.8354,2.8355,2.8355,2.8362,0,2.8279,2.8294,2.8297,2.8309,2.8316,2.8316,2.8323,2.8328,2.8331,2.8336,2.8339,2.8346,2.8344,2.8346,2.835,2.8353,2.8358,2.8353,2.8359,2.8359,2.8357,2.8366,2.8367,2.8374,2.8364,2.8364,2.8364,0,2.8294,2.8301,2.8314,2.832,2.8323,2.8329,2.8335,2.8341,2.8346,2.8348,2.8352,2.8352,2.8359,2.8356,2.8364,2.8361,2.8363,2.8365,2.8365,2.8365,2.8362,2.8366,2.8377,2.8377,2.8366,2.8366,2.8365,0,2.83,2.8313,2.8321,2.8325,2.8332,2.8336,2.8339,2.8345,2.8348,2.8354,2.8356,2.8362,2.8365,2.8369,2.837,2.8368,2.8378,2.8375,2.8379,2.8379,2.8381,2.8381,2.8391,2.8384,2.8384,2.8384,2.8383,0,2.8312,2.8319,2.8324,2.833,2.8337,2.834,2.8348,2.8351,2.8355,2.836,2.8361,2.8365,2.8368,2.8373,2.8374,2.838,2.8382,2.8382,2.8382,2.8382,2.8382,2.8383,2.8383,2.8384,2.8384,2.8384,2.8384,0,2.832,2.8324,2.8333,2.834,2.8341,2.8347,2.8352,2.8356,2.8359,2.8365,2.8367,2.837,2.8376,2.8378,2.8384,2.8385,2.8392,2.8392,2.839,2.839,2.8393,2.8393,2.8405,2.8406,2.8398,2.8398,2.8398,0,2.8327,2.8333,2.8339,2.8343,2.8346,2.8352,2.8356,2.8359,2.8362,2.8368,2.8372,2.8377,2.8382,2.839,2.8393,2.8397,2.8397,2.8401,2.8398,2.8397,2.8396,2.8395,2.8396,2.8401,2.8401,2.8401,2.8402,0,2.8338,2.8339,2.8345,2.8351,2.8356,2.8361,2.8365,2.8368,2.8371,2.8375,2.8381,2.8384,2.839,2.8395,2.84,2.8402,2.8402,2.8403,2.8403,2.8403,2.8401,2.8401,2.8391,2.8402,2.8402,2.8402,2.8402,2.8402,2.8345,2.835,2.8355,2.8361,2.8365,2.8369,2.8373,2.8376,2.8381,2.8386,2.8387,2.8393,2.8397,2.8403,2.8405,2.8409,2.8408,2.841,2.841,2.841,2.841,2.8401,2.841,2.841,2.841,2.841,2.841,0,2.8355,2.8359,2.8364,2.837,2.8375,2.8375,2.8379,2.8383,2.8388,2.8392,2.8396,2.8402,2.8406,2.8409,2.8413,2.8416,2.8416,2.8417,2.8416,2.8417,2.8411,2.841,2.8417,2.8417,2.8417,2.8417,2.8417,2.8417,2.8361,2.8369,2.837,2.8379,2.8382,2.8388,2.839,2.8393,2.8396,2.8403,2.8407,2.8409,2.8412,2.8416,2.842,2.8421,2.8422,2.8423,2.8423,2.8418,2.8417,2.8417,2.8415,2.8423,2.8423,2.8428,2.8429,2.8429]}]]